Irini — SYZA — position and weather

sailwx.info

Track history (hours):
 
Tides and Currents Weather Stations Pressure Air Temp Water Temp Dewpoint Dewpoint Depression Visibility Wind Speed Wind Dir Waves Ship Positions

Irini

Last reported at 2014-Oct-23 21:32 UTC. Time now 2014-Oct-25 03:34 UTC.
Position N 37°52' E 024°31'.

Length 137 m; draft 7.4 m.

Type: Tanker. MMSI: 240052000.

Date/timePositionNaut miles runAvg speedWind from/ knotsBaromVisibWave heightAir tempDewpointWater temp
2014-Oct-23 21:32N 37°52' E 024°31'1211.7
2014-Oct-23 20:29N 37°44' E 024°19'1111.7
2014-Oct-23 19:33N 37°37' E 024°08'1711.4
2014-Oct-23 18:05N 37°38' E 023°47'610.8
2014-Oct-23 17:34N 37°41' E 023°42'1111.4
2014-Oct-23 16:34N 37°52' E 023°35'9 8.8
2014-Oct-23 15:34N 38°00' E 023°33'2 1.5
2014-Oct-23 14:28N 38°01' E 023°31'0 0.0
2014-Oct-23 13:10N 38°01' E 023°31'0 0.0
2014-Oct-23 12:31N 38°01' E 023°31'0 0.0
2014-Oct-23 11:28N 38°02' E 023°31'0 0.0
2014-Oct-23 10:28N 38°01' E 023°31'0 0.0
2014-Oct-23 09:31N 38°01' E 023°31'0 0.0
2014-Oct-23 08:25N 38°01' E 023°31'0 0.1
2014-Oct-23 07:31N 38°02' E 023°31'2 1.6
2014-Oct-23 06:33N 38°01' E 023°33'2 1.8
2014-Oct-23 05:33N 38°02' E 023°36'49 1.0
2014-Oct-21 04:28N 38°13' E 024°36'3711.9
2014-Oct-21 01:22N 38°44' E 024°11'  
2014-Oct-17 13:29N 38°01' E 024°37'1411.2
2014-Oct-17 12:14N 37°49' E 024°27'2111.9
2014-Oct-17 10:30N 37°37' E 024°06'1111.6
2014-Oct-17 09:33N 37°37' E 023°53'1110.8
2014-Oct-17 08:33N 37°42' E 023°41'1211.7
2014-Oct-17 07:33N 37°54' E 023°37'8 7.7
2014-Oct-17 06:33N 38°01' E 023°35'1 0.0
2014-Oct-15 14:14N 38°02' E 023°35'3 3.7
2014-Oct-15 13:25N 38°02' E 023°31'0 0.0
2014-Oct-15 12:31N 38°02' E 023°31'0 0.0
2014-Oct-15 11:31N 38°02' E 023°31'0 0.0
2014-Oct-15 10:31N 38°02' E 023°31'0 0.0
2014-Oct-15 09:31N 38°02' E 023°31'0 0.0
2014-Oct-15 08:31N 38°01' E 023°31'0 0.0
2014-Oct-15 07:31N 38°01' E 023°31'0 0.0
2014-Oct-15 06:28N 38°01' E 023°31'0 0.0
2014-Oct-15 05:31N 38°01' E 023°31'0 0.0
2014-Oct-15 04:31N 38°01' E 023°31'0 0.0
2014-Oct-15 03:31N 38°01' E 023°31'0 0.0
2014-Oct-15 02:28N 38°01' E 023°31'0 0.0
2014-Oct-15 01:31N 38°01' E 023°31'0 0.0
2014-Oct-15 00:31N 38°01' E 023°31'0 0.0
2014-Oct-14 23:31N 38°01' E 023°31'0 0.0
2014-Oct-14 22:31N 38°01' E 023°31'0 0.0
2014-Oct-14 21:31N 38°01' E 023°31'0 0.0
2014-Oct-14 20:31N 38°01' E 023°31'0 0.0
2014-Oct-14 19:31N 38°01' E 023°31'0 0.1
2014-Oct-14 18:31N 38°02' E 023°31'0 0.0
2014-Oct-14 17:31N 38°02' E 023°31'0 0.0
2014-Oct-14 16:31N 38°02' E 023°31'0 0.0
2014-Oct-14 15:28N 38°02' E 023°31'0 0.0
2014-Oct-14 14:31N 38°02' E 023°31'0 0.1
2014-Oct-14 13:31N 38°01' E 023°32'0 0.1
2014-Oct-14 12:33N 38°01' E 023°31'  
Track history (hours):
 
Tides and Currents Weather Stations Pressure Air Temp Water Temp Dewpoint Dewpoint Depression Visibility Wind Speed Wind Dir Waves Ship Positions

Irini

Last reported at 2014-Oct-23 21:32 UTC. Time now 2014-Oct-25 03:34 UTC.
Position N 37°52' E 024°31'.

Length 137 m; draft 7.4 m.

Type: Tanker. MMSI: 240052000.

Date/timePositionNaut miles runAvg speedWind from/ knotsBaromVisibWave heightAir tempDewpointWater temp
2014-Oct-23 21:32N 37°52' E 024°31'1211.7
2014-Oct-23 20:29N 37°44' E 024°19'1111.7
2014-Oct-23 19:33N 37°37' E 024°08'1711.4
2014-Oct-23 18:05N 37°38' E 023°47'610.8
2014-Oct-23 17:34N 37°41' E 023°42'1111.4
2014-Oct-23 16:34N 37°52' E 023°35'9 8.8
2014-Oct-23 15:34N 38°00' E 023°33'2 1.5
2014-Oct-23 14:28N 38°01' E 023°31'0 0.0
2014-Oct-23 13:10N 38°01' E 023°31'0 0.0
2014-Oct-23 12:31N 38°01' E 023°31'0 0.0
2014-Oct-23 11:28N 38°02' E 023°31'0 0.0
2014-Oct-23 10:28N 38°01' E 023°31'0 0.0
2014-Oct-23 09:31N 38°01' E 023°31'0 0.0
2014-Oct-23 08:25N 38°01' E 023°31'0 0.1
2014-Oct-23 07:31N 38°02' E 023°31'2 1.6
2014-Oct-23 06:33N 38°01' E 023°33'2 1.8
2014-Oct-23 05:33N 38°02' E 023°36'49 1.0
2014-Oct-21 04:28N 38°13' E 024°36'3711.9
2014-Oct-21 01:22N 38°44' E 024°11'  
2014-Oct-17 13:29N 38°01' E 024°37'1411.2
2014-Oct-17 12:14N 37°49' E 024°27'2111.9
2014-Oct-17 10:30N 37°37' E 024°06'1111.6
2014-Oct-17 09:33N 37°37' E 023°53'1110.8
2014-Oct-17 08:33N 37°42' E 023°41'1211.7
2014-Oct-17 07:33N 37°54' E 023°37'8 7.7
2014-Oct-17 06:33N 38°01' E 023°35'1 0.0
2014-Oct-15 14:14N 38°02' E 023°35'3 3.7
2014-Oct-15 13:25N 38°02' E 023°31'0 0.0
2014-Oct-15 12:31N 38°02' E 023°31'0 0.0
2014-Oct-15 11:31N 38°02' E 023°31'0 0.0
2014-Oct-15 10:31N 38°02' E 023°31'0 0.0
2014-Oct-15 09:31N 38°02' E 023°31'0 0.0
2014-Oct-15 08:31N 38°01' E 023°31'0 0.0
2014-Oct-15 07:31N 38°01' E 023°31'0 0.0
2014-Oct-15 06:28N 38°01' E 023°31'0 0.0
2014-Oct-15 05:31N 38°01' E 023°31'0 0.0
2014-Oct-15 04:31N 38°01' E 023°31'0 0.0
2014-Oct-15 03:31N 38°01' E 023°31'0 0.0
2014-Oct-15 02:28N 38°01' E 023°31'0 0.0
2014-Oct-15 01:31N 38°01' E 023°31'0 0.0
2014-Oct-15 00:31N 38°01' E 023°31'0 0.0
2014-Oct-14 23:31N 38°01' E 023°31'0 0.0
2014-Oct-14 22:31N 38°01' E 023°31'0 0.0
2014-Oct-14 21:31N 38°01' E 023°31'0 0.0
2014-Oct-14 20:31N 38°01' E 023°31'0 0.0
2014-Oct-14 19:31N 38°01' E 023°31'0 0.1
2014-Oct-14 18:31N 38°02' E 023°31'0 0.0
2014-Oct-14 17:31N 38°02' E 023°31'0 0.0
2014-Oct-14 16:31N 38°02' E 023°31'0 0.0
2014-Oct-14 15:28N 38°02' E 023°31'0 0.0
2014-Oct-14 14:31N 38°02' E 023°31'0 0.1
2014-Oct-14 13:31N 38°01' E 023°32'0 0.1
2014-Oct-14 12:33N 38°01' E 023°31'  

Dump ship's entire track history